Погода в Лекарственном

Россия / Республика Крым     44°56′38″N   33°49′13″E
темп.,
°C
ветер,
м/с
пор.,
м/с
влажн.,
%
обл.,
%
осадки,
мм/ч
давл.,
гПа
погр.,
м
16 мая, пн
пн1600:00+12ююз22805 0.0 101922
03:00+11ю337993 0.0 101828
06:00+11ю33735 0.0 101947
09:00+17зюз34615 0.0 1019495
12:00+20зюз555570 0.0 1019956
15:00+19зюз66575 0.0 1019672
18:00+17зюз566526 0.0 1019398
21:00+13ююз238926 0.0 101925
17 мая, вт
вт1700:00+12ю12915 0.0 101911
03:00+12ю22925 0.0 101817
06:00+12ю33895 0.0 101841
09:00+18зюз336690 0.0 1018507
12:00+18зюз346593 0.0 1018504
15:00+19з345913 0.1 1017667
18:00+15юз3678100 0.0 1016227
21:00+14ю347998 0.0 1015105
18 мая, ср
ср1800:00+14ю2377100 0.0 101455
03:00+13зюз4889100 0.6 1013319
06:00+12з3497100 4.2 1011194
09:00+12юз3698100 17.8 1011394
12:00+12с61093100 4.2 1013546
15:00+14с7864100 4.9 10141415
18:00+14сз4754100 0.0 1015464
21:00+9ссз71282100 0.6 1020576
19 мая, чт
чт1900:00+9ссз288498 2.3 1021380
03:00+6ссз259499 2.5 102394
06:00+9ссв159051 0.3 1025236
09:00+12ссз457433 0.3 1026919
12:00+15сз555697 0.2 10261622
15:00+14з666599 0.3 1027710
18:00+13з677377 0.0 1026377
21:00+10зюз238324 0.0 102740
20 мая, пт
пт2000:00+9ю358489 0.0 102784
03:00+9ююз34845 0.0 102656
06:00+10ю35855 0.0 102693
09:00+16юз56657 0.0 1025638
12:00+18зюз676341 0.0 1025814
15:00+18зюз67665 0.0 1024744
18:00+16юз67765 0.0 1022533
21:00+13ю5993100 0.0 1021212